sat.trackr.live / text

‹ back to catalog

STARLINK-30223

NORAD 57603 · 2023-119B

PAYLOAD ACTIVE UNKNOWN

§ Identity

Operator
Country
US
Launch date
2023-08-11
Launch site
AFETR
Launch vehicle
Mass (kg)
RCS (m²)

Purposes: comms

External: N2YO · Heavens-Above · Gunter

§ Orbital elements

Epoch: 2026-09-20T22:08:06.548928Z

Period
95.09 min
Inclination
42.9982°
Eccentricity
0.0011880
Mean motion
15.14304144 rev/d
Perigee alt
514.9 km
Apogee alt
531.3 km
Semi-major
6,901.2 km
B*
8.4775e-4
RAAN
87.2091°
Arg perigee
252.9919°
Mean anomaly
106.9626°
Rev number
17,260

§ Raw data

STARLINK-302231 57603U 23119B   26263.92229802  .00015632  00000+0  84775-3 0  99902 57603  42.9982  87.2091 0011880 252.9919 106.9626 15.14304144172602

JSON: /api/v1/satellites/57603 · /tle

For live sub-satellite position, see the globe view (requires WebGL).

§ Visibility from observer

Set your observer location to see the next 7 days of passes ≥ 10°. The values pass through the URL so the page stays shareable.

No JS? Fill the form by hand. The geolocation button needs JavaScript.